Hourly Data Report for May 17, 2022

VICTORIA UNIVERSITY CS
BRITISH COLUMBIA
Current Station Operator: ECCC - MSC

48°27'25.200" N
123°18'16.600" W
60.10 m
1018598
71783
WYJ

Download Data

Hourly Data (May 2022)
Hourly Data Report for May 17, 2022
TIME
LST
Temp Definition
°C
Dew Point Definition
°C
Rel Hum Definition
%
Precip. Amount Definition
mm

Wind Dir Definition
10's deg

Wind Spd Definition
km/h
Visibility Definition
km
Stn Press Definition
kPa
Hmdx Definition


Wind Chill Definition


Weather Definition


00:00 7.4 2.8 73 0.0 26 7   101.59     LegendNANA
01:00 7.3 2.5 72 0.0 25 5   101.61     LegendNANA
02:00 7.6 1.8 66 0.0 26 6   101.62     LegendNANA
03:00 6.5 2.2 74 0.0 30 4   101.63     LegendNANA
04:00 6.9 2.4 73 0.0 27 6   101.63     LegendNANA
05:00 7.1 2.3 71 0.0 27 4   101.62     LegendNANA
06:00 7.5 3.2 74 0.0 17 3   101.66     LegendNANA
07:00 10.2 5.5 72 0.0 20 6   101.67     LegendNANA
08:00 10.1 5.8 74 0.0 18 6   101.73     LegendNANA
09:00 11.5 6.0 69 0.0 18 6   101.76     LegendNANA
10:00 11.6 4.6 62 0.0 19 11   101.79     LegendNANA
11:00 11.8 6.3 69 0.0 18 7   101.82     LegendNANA
12:00 11.8 4.5 61 0.0 17 9   101.84     LegendNANA
13:00 11.7 4.9 63 0.0 17 8   101.83     LegendNANA
14:00 12.5 5.6 63 0.0 17 6   101.84     LegendNANA
15:00 12.8 4.2 56 0.0 18 6   101.82     LegendNANA
16:00 12.5 3.7 55 0.0 16 6   101.78     LegendNANA
17:00 12.8 4.2 56 0.0 9 3   101.69     LegendNANA
18:00 12.7 2.3 49 0.0 0 1   101.63     LegendNANA
19:00 11.7 5.2 64 0.0 22 2   101.56     LegendNANA
20:00 10.5 5.8 73 0.0   0   101.45     LegendNANA
21:00 9.9 6.4 79 0.0 0 1   101.40     LegendNANA
22:00 9.5 5.6 77 0.0   0   101.28     LegendNANA
23:00 8.8 6.2 84 0.0 0 1   101.14     LegendNANA

Notes on Data Quality.

Legend

  • E = Estimated
  • M = Missing
  • NA = Not Available*
  • [empty] = Indicates an unobserved value
Date modified: